Time,TemperatureF,DewpointF,PressureIn,WindDirection,WindDirectionDegrees,WindSpeedMPH,WindSpeedGustMPH,Humidity,HourlyPrecipIn,Conditions,Clouds,dailyrainin,SoftwareType,DateUTC
2013-01-21 00:13:00,36.6,20.0,29.94,NE,36,1.0,3.0,52,0.00,,,0.00,weatherlink.com 1.10,2013-01-21 05:13:00,
2013-01-21 00:28:00,36.3,19.0,29.93,NE,36,1.0,3.0,49,0.00,,,0.00,weatherlink.com 1.10,2013-01-21 05:28:00,
2013-01-21 00:43:00,36.6,17.0,29.93,NE,36,3.0,4.0,45,0.00,,,0.00,weatherlink.com 1.10,2013-01-21 05:43:00,
2013-01-21 00:58:00,36.4,18.0,29.93,NE,36,1.0,3.0,48,0.00,,,0.00,weatherlink.com 1.10,2013-01-21 05:58:00,
2013-01-21 01:13:00,36.2,18.0,29.92,NE,36,2.0,4.0,48,0.00,,,0.00,weatherlink.com 1.10,2013-01-21 06:13:00,
2013-01-21 01:28:00,36.6,18.0,29.92,NE,37,0.0,4.0,47,0.00,,,0.00,weatherlink.com 1.10,2013-01-21 06:28:00,
2013-01-21 01:43:00,36.2,17.0,29.92,NE,37,1.0,3.0,46,0.00,,,0.00,weatherlink.com 1.10,2013-01-21 06:43:00,
2013-01-21 01:58:00,36.6,17.0,29.93,NNE,31,0.0,4.0,45,0.00,,,0.00,weatherlink.com 1.10,2013-01-21 06:58:00,
2013-01-21 02:13:00,36.2,17.0,29.93,NNE,32,0.0,5.0,45,0.00,,,0.00,weatherlink.com 1.10,2013-01-21 07:13:00,
2013-01-21 02:28:00,35.9,19.0,29.93,NNE,32,0.0,3.0,50,0.00,,,0.00,weatherlink.com 1.10,2013-01-21 07:28:00,
2013-01-21 02:44:00,36.2,19.0,29.93,NE,34,4.0,5.0,49,0.00,,,0.00,weatherlink.com 1.10,2013-01-21 07:44:00,
2013-01-21 02:59:00,36.6,19.0,29.93,SE,127,3.0,4.0,50,0.00,,,0.00,weatherlink.com 1.10,2013-01-21 07:59:00,
2013-01-21 03:14:00,36.4,21.0,29.92,NNE,30,4.0,5.0,53,0.00,,,0.00,weatherlink.com 1.10,2013-01-21 08:14:00,
2013-01-21 03:29:00,36.1,20.0,29.92,NNE,27,2.0,5.0,52,0.00,,,0.00,weatherlink.com 1.10,2013-01-21 08:29:00,
2013-01-21 03:44:00,36.1,18.0,29.92,NE,56,2.0,3.0,48,0.00,,,0.00,weatherlink.com 1.10,2013-01-21 08:44:00,
2013-01-21 03:59:00,35.9,17.0,29.91,NE,37,1.0,4.0,47,0.00,,,0.00,weatherlink.com 1.10,2013-01-21 08:59:00,
2013-01-21 04:14:00,35.8,17.0,29.91,NNE,32,3.0,3.0,46,0.00,,,0.00,weatherlink.com 1.10,2013-01-21 09:14:00,
2013-01-21 04:29:00,35.9,18.0,29.91,NNE,31,4.0,4.0,48,0.00,,,0.00,weatherlink.com 1.10,2013-01-21 09:29:00,
2013-01-21 04:44:00,35.7,18.0,29.91,NNE,30,2.0,4.0,48,0.00,,,0.00,weatherlink.com 1.10,2013-01-21 09:44:00,
2013-01-21 05:03:00,35.9,17.0,29.90,NNE,30,2.0,4.0,46,0.00,,,0.00,weatherlink.com 1.10,2013-01-21 10:03:00,
2013-01-21 05:14:00,36.0,17.0,29.90,NNE,20,2.0,4.0,46,0.00,,,0.00,weatherlink.com 1.10,2013-01-21 10:14:00,
2013-01-21 05:29:00,35.9,17.0,29.89,NNE,21,3.0,4.0,46,0.00,,,0.00,weatherlink.com 1.10,2013-01-21 10:29:00,
2013-01-21 05:44:00,35.7,18.0,29.89,NNE,32,4.0,5.0,48,0.00,,,0.00,weatherlink.com 1.10,2013-01-21 10:44:00,
2013-01-21 05:59:00,35.6,17.0,29.89,NNE,33,1.0,4.0,47,0.00,,,0.00,weatherlink.com 1.10,2013-01-21 10:59:00,
2013-01-21 06:18:00,35.9,16.0,29.89,NNE,32,4.0,5.0,45,0.00,,,0.00,weatherlink.com 1.10,2013-01-21 11:18:00,
2013-01-21 06:29:00,36.2,15.0,29.89,NNE,32,2.0,6.0,42,0.00,,,0.00,weatherlink.com 1.10,2013-01-21 11:29:00,
2013-01-21 06:44:00,36.2,17.0,29.88,NNE,30,5.0,5.0,46,0.00,,,0.00,weatherlink.com 1.10,2013-01-21 11:44:00,
2013-01-21 06:59:00,36.2,16.0,29.88,NE,34,5.0,6.0,43,0.00,,,0.00,weatherlink.com 1.10,2013-01-21 11:59:00,
2013-01-21 07:14:00,36.4,17.0,29.89,North,10,3.0,6.0,46,0.00,,,0.00,weatherlink.com 1.10,2013-01-21 12:14:00,
2013-01-21 07:29:00,36.0,16.0,29.89,NE,54,4.0,5.0,44,0.00,,,0.00,weatherlink.com 1.10,2013-01-21 12:29:00,
2013-01-21 07:44:00,35.7,16.0,29.89,NNE,21,2.0,5.0,44,0.00,,,0.00,weatherlink.com 1.10,2013-01-21 12:44:00,
2013-01-21 07:59:00,35.4,17.0,29.90,NNE,19,1.0,5.0,48,0.00,,,0.00,weatherlink.com 1.10,2013-01-21 12:59:00,
2013-01-21 08:14:00,35.2,18.0,29.89,NE,43,1.0,4.0,50,0.00,,,0.00,weatherlink.com 1.10,2013-01-21 13:14:00,
2013-01-21 08:29:00,35.3,19.0,29.89,NE,49,0.0,3.0,51,0.00,,,0.00,weatherlink.com 1.10,2013-01-21 13:29:00,
2013-01-21 08:44:00,35.3,19.0,29.90,East,80,2.0,4.0,52,0.00,,,0.00,weatherlink.com 1.10,2013-01-21 13:44:00,
2013-01-21 08:59:00,35.9,18.0,29.90,NNE,27,0.0,4.0,48,0.00,,,0.00,weatherlink.com 1.10,2013-01-21 13:59:00,
2013-01-21 09:14:00,37.0,21.0,29.91,ESE,117,0.0,4.0,52,0.00,,,0.00,weatherlink.com 1.10,2013-01-21 14:14:00,
2013-01-21 09:29:00,37.9,21.0,29.91,SSW,205,0.0,3.0,51,0.00,,,0.00,weatherlink.com 1.10,2013-01-21 14:29:00,
2013-01-21 09:59:00,38.8,19.0,29.92,ESE,112,0.0,4.0,46,0.00,,,0.00,weatherlink.com 1.10,2013-01-21 14:59:00,
2013-01-21 10:14:00,39.6,23.0,29.92,South,188,0.0,4.0,51,0.00,,,0.00,weatherlink.com 1.10,2013-01-21 15:14:00,
2013-01-21 10:29:00,40.0,22.0,29.92,South,191,1.0,5.0,49,0.00,,,0.00,weatherlink.com 1.10,2013-01-21 15:29:00,
2013-01-21 10:44:00,40.9,23.0,29.92,SSE,152,4.0,9.0,49,0.00,,,0.00,weatherlink.com 1.10,2013-01-21 15:44:00,
2013-01-21 10:59:00,41.3,24.0,29.92,SSW,202,1.0,5.0,50,0.00,,,0.00,weatherlink.com 1.10,2013-01-21 15:59:00,
2013-01-21 11:15:00,41.5,25.0,29.91,South,174,5.0,6.0,52,0.00,,,0.00,weatherlink.com 1.10,2013-01-21 16:15:00,
2013-01-21 11:30:00,42.5,24.0,29.90,South,175,5.0,8.0,48,0.00,,,0.00,weatherlink.com 1.10,2013-01-21 16:30:00,
2013-01-21 11:45:00,42.9,24.0,29.90,SSE,164,6.0,8.0,47,0.00,,,0.00,weatherlink.com 1.10,2013-01-21 16:45:00,
2013-01-21 12:00:00,43.3,25.0,29.88,South,177,6.0,14.0,48,0.00,,,0.00,weatherlink.com 1.10,2013-01-21 17:00:00,
2013-01-21 12:15:00,43.3,24.0,29.87,East,85,0.0,10.0,47,0.00,,,0.00,weatherlink.com 1.10,2013-01-21 17:15:00,
2013-01-21 12:30:00,43.4,25.0,29.86,SSW,209,6.0,15.0,49,0.00,,,0.00,weatherlink.com 1.10,2013-01-21 17:30:00,
2013-01-21 12:48:00,43.8,25.0,29.85,NE,56,5.0,10.0,47,0.00,,,0.00,weatherlink.com 1.10,2013-01-21 17:48:00,
2013-01-21 13:00:00,44.5,25.0,29.85,South,188,7.0,9.0,47,0.00,,,0.00,weatherlink.com 1.10,2013-01-21 18:00:00,
2013-01-21 13:15:00,44.3,24.0,29.84,SE,145,7.0,15.0,45,0.00,,,0.00,weatherlink.com 1.10,2013-01-21 18:15:00,
2013-01-21 13:30:00,44.1,23.0,29.83,West,271,2.0,12.0,44,0.00,,,0.00,weatherlink.com 1.10,2013-01-21 18:30:00,
2013-01-21 13:45:00,44.7,23.0,29.83,South,186,2.0,12.0,42,0.00,,,0.00,weatherlink.com 1.10,2013-01-21 18:45:00,
2013-01-21 14:00:00,45.0,24.0,29.83,SSE,159,6.0,12.0,43,0.00,,,0.00,weatherlink.com 1.10,2013-01-21 19:00:00,
2013-01-21 14:15:00,45.1,23.0,29.83,SW,226,8.0,12.0,41,0.00,,,0.00,weatherlink.com 1.10,2013-01-21 19:15:00,
2013-01-21 14:30:00,44.7,21.0,29.83,NW,322,3.0,10.0,39,0.00,,,0.00,weatherlink.com 1.10,2013-01-21 19:30:00,
2013-01-21 14:45:00,43.4,21.0,29.82,South,181,14.0,19.0,41,0.00,,,0.00,weatherlink.com 1.10,2013-01-21 19:45:00,
2013-01-21 15:00:00,42.9,17.0,29.83,SSE,156,2.0,18.0,36,0.00,,,0.00,weatherlink.com 1.10,2013-01-21 20:00:00,
2013-01-21 15:15:00,43.7,17.0,29.83,NW,316,7.0,8.0,34,0.00,,,0.00,weatherlink.com 1.10,2013-01-21 20:15:00,
2013-01-21 15:30:00,43.3,17.0,29.82,SE,136,3.0,10.0,34,0.00,,,0.00,weatherlink.com 1.10,2013-01-21 20:30:00,
2013-01-21 15:45:00,42.8,15.0,29.83,SSW,193,2.0,15.0,32,0.00,,,0.00,weatherlink.com 1.10,2013-01-21 20:45:00,
2013-01-21 16:00:00,42.4,14.0,29.84,NNE,24,4.0,12.0,32,0.00,,,0.00,weatherlink.com 1.10,2013-01-21 21:00:00,
2013-01-21 16:15:00,40.7,12.0,29.83,SSW,210,6.0,16.0,31,0.00,,,0.00,weatherlink.com 1.10,2013-01-21 21:15:00,
2013-01-21 16:30:00,39.8,12.0,29.84,SSE,167,5.0,11.0,32,0.00,,,0.00,weatherlink.com 1.10,2013-01-21 21:30:00,
2013-01-21 16:45:00,39.0,11.0,29.84,South,178,1.0,9.0,31,0.00,,,0.00,weatherlink.com 1.10,2013-01-21 21:45:00,
2013-01-21 17:00:00,37.3,11.0,29.85,SSW,203,6.0,19.0,34,0.00,,,0.00,weatherlink.com 1.10,2013-01-21 22:00:00,
2013-01-21 17:15:00,35.7,10.0,29.86,ESE,107,5.0,15.0,34,0.00,,,0.00,weatherlink.com 1.10,2013-01-21 22:15:00,
2013-01-21 17:30:00,35.0,10.0,29.86,SSW,198,9.0,12.0,36,0.00,,,0.00,weatherlink.com 1.10,2013-01-21 22:30:00,
2013-01-21 17:45:00,34.4,10.0,29.85,SSW,204,3.0,12.0,37,0.00,,,0.00,weatherlink.com 1.10,2013-01-21 22:45:00,
2013-01-21 18:00:00,34.3,11.0,29.85,South,175,4.0,11.0,38,0.00,,,0.00,weatherlink.com 1.10,2013-01-21 23:00:00,
2013-01-21 18:15:00,34.1,12.0,29.84,SSW,198,6.0,14.0,40,0.00,,,0.00,weatherlink.com 1.10,2013-01-21 23:15:00,
2013-01-21 18:30:00,33.8,12.0,29.83,South,184,1.0,14.0,40,0.00,,,0.00,weatherlink.com 1.10,2013-01-21 23:30:00,
2013-01-21 18:45:00,33.7,12.0,29.84,SSW,201,5.0,12.0,40,0.00,,,0.00,weatherlink.com 1.10,2013-01-21 23:45:00,
2013-01-21 19:00:00,33.4,12.0,29.84,South,179,6.0,16.0,42,0.00,,,0.00,weatherlink.com 1.10,2013-01-22 00:00:00,
2013-01-21 19:16:00,33.0,13.0,29.84,SSE,163,7.0,14.0,43,0.00,,,0.00,weatherlink.com 1.10,2013-01-22 00:16:00,
2013-01-21 19:31:00,32.8,12.0,29.84,SSW,204,5.0,12.0,43,0.00,,,0.00,weatherlink.com 1.10,2013-01-22 00:31:00,
2013-01-21 19:46:00,32.6,12.0,29.84,SSE,164,8.0,13.0,43,0.00,,,0.00,weatherlink.com 1.10,2013-01-22 00:46:00,
2013-01-21 20:01:00,32.5,13.0,29.83,SE,141,4.0,7.0,45,0.00,,,0.00,weatherlink.com 1.10,2013-01-22 01:01:00,
2013-01-21 20:16:00,32.7,13.0,29.83,WSW,238,3.0,12.0,45,0.00,,,0.00,weatherlink.com 1.10,2013-01-22 01:16:00,
2013-01-21 20:31:00,32.4,13.0,29.83,NE,49,2.0,8.0,45,0.00,,,0.00,weatherlink.com 1.10,2013-01-22 01:31:00,
2013-01-21 20:46:00,32.2,12.0,29.84,SE,140,6.0,10.0,44,0.00,,,0.00,weatherlink.com 1.10,2013-01-22 01:46:00,
2013-01-21 21:01:00,32.0,11.0,29.83,SSW,207,3.0,19.0,41,0.00,,,0.00,weatherlink.com 1.10,2013-01-22 02:01:00,
2013-01-21 21:16:00,31.5,9.0,29.83,SSW,198,11.0,19.0,39,0.00,,,0.00,weatherlink.com 1.10,2013-01-22 02:16:00,
2013-01-21 21:31:00,31.5,11.0,29.83,South,191,5.0,16.0,42,0.00,,,0.00,weatherlink.com 1.10,2013-01-22 02:31:00,
2013-01-21 21:46:00,31.3,10.0,29.83,East,86,3.0,10.0,41,0.00,,,0.00,weatherlink.com 1.10,2013-01-22 02:46:00,
2013-01-21 22:01:00,30.8,10.0,29.84,South,186,9.0,11.0,41,0.00,,,0.00,weatherlink.com 1.10,2013-01-22 03:01:00,
2013-01-21 22:16:00,30.6,10.0,29.84,South,189,7.0,22.0,43,0.00,,,0.00,weatherlink.com 1.10,2013-01-22 03:16:00,
2013-01-21 22:31:00,30.1,10.0,29.84,South,180,1.0,8.0,43,0.00,,,0.00,weatherlink.com 1.10,2013-01-22 03:31:00,
2013-01-21 22:46:00,29.7,10.0,29.84,SSE,165,0.0,10.0,43,0.00,,,0.00,weatherlink.com 1.10,2013-01-22 03:46:00,
2013-01-21 23:01:00,29.4,9.0,29.84,SSW,205,1.0,9.0,43,0.00,,,0.00,weatherlink.com 1.10,2013-01-22 04:01:00,
2013-01-21 23:16:00,28.9,9.0,29.84,SE,141,2.0,7.0,44,0.00,,,0.00,weatherlink.com 1.10,2013-01-22 04:16:00,
2013-01-21 23:31:00,28.6,10.0,29.84,West,279,5.0,12.0,45,0.00,,,0.00,weatherlink.com 1.10,2013-01-22 04:31:00,
2013-01-21 23:46:00,28.4,10.0,29.84,North,2,0.0,11.0,47,0.00,,,0.00,weatherlink.com 1.10,2013-01-22 04:46:00,